Weather History for KCCU - March, 2014

Change the Weather History Date:

Monday, March 31, 2014

  Actual Average (KLXV) Record (KLXV)
Temperature  
Mean Temperature 20 °F -  
Max Temperature 26 °F 40 °F 59 °F (2012)
Min Temperature 14 °F 15 °F 0 °F (1987)
Degree Days  
Heating Degree Days 45 38  
Month to date heating degree days 1273  
Since 1 July heating degree days 8983  
Cooling Degree Days 0 0  
Month to date cooling degree days 0  
Year to date cooling degree days 0  
Moisture  
Dew Point 9 °F    
Average Humidity 63    
Maximum Humidity 80    
Minimum Humidity 31    
Precipitation  
Precipitation 0.00 in 0.03 in 0.28 in (2008)
Month to date precipitation 0.94  
Year to date precipitation 2.26  
Sea Level Pressure  
Sea Level Pressure 29.91 in    
Wind  
Wind Speed 27 mph (WSW)    
Max Wind Speed 39 mph    
Max Gust Speed 60 mph    
Visibility 5 miles    
Events Snow    
T = Trace of Precipitation, MM = Missing Value Source: NWS Daily Summary

Daily Weather History Graph

Daily Weather History Graph

Search for Another Location

Airport or City:

Trip Planner

Search our weather history database for the weather conditions in past years. The results will help you decide how hot, cold, wet, or windy it might be!

Date:

Astronomy

Mar. 31, 2014 Rise Set
Actual Time 6:50 AM MDT 7:27 PM MDT
Civil Twilight 6:23 AM MDT 7:54 PM MDT
Nautical Twilight 5:51 AM MDT 8:26 PM MDT
Astronomical Twilight 5:18 AM MDT 8:59 PM MDT
Moon 7:15 AM MDT (3/31) 8:48 PM MDT (3/31)
Length of Visible Light 13h 31m
Length of Day
12h 37m
New Moon, 1% of the Moon is Illuminated
Mar 31
New Moon
Apr 7
First Quarter
Apr 15
Full
Apr 22
Last Quarter
Apr 29
New

Hourly Weather History & Observations

Time (MDT) Temp. Windchill Dew Point Humidity Pressure Visibility Wind Dir Wind Speed Gust Speed Precip Events Conditions
12:16 AM 19.4 °F -0.0 °F 14.0 °F 80% 29.74 in 0.2 mi WSW 32.2 mph 49.5 mph N/A Snow Heavy Snow
12:36 AM 19.4 °F -1.1 °F 14.0 °F 80% 29.73 in 0.2 mi WSW 36.8 mph 48.3 mph N/A Snow Heavy Snow
12:56 AM 19.4 °F -1.3 °F 14.0 °F 80% 29.73 in 0.2 mi WSW 38.0 mph 59.8 mph N/A Snow Heavy Snow
1:16 AM 19.4 °F -0.6 °F 14.0 °F 80% 29.73 in 0.2 mi West 34.5 mph 42.6 mph N/A Snow Heavy Snow
1:36 AM 19.4 °F -0.0 °F 14.0 °F 80% 29.75 in 0.2 mi West 32.2 mph 43.7 mph N/A Snow Heavy Snow
1:56 AM 19.4 °F -1.6 °F 14.0 °F 80% 29.73 in 0.2 mi West 39.1 mph - N/A Snow Heavy Snow
2:16 AM 19.4 °F -1.1 °F 14.0 °F 80% 29.74 in 0.2 mi West 36.8 mph 58.7 mph N/A Snow Heavy Snow
2:36 AM 19.4 °F -1.3 °F 14.0 °F 80% 29.74 in 0.2 mi West 38.0 mph 52.9 mph N/A Snow Heavy Snow
2:56 AM 19.4 °F 0.5 °F 14.0 °F 80% 29.77 in 0.2 mi West 29.9 mph 43.7 mph N/A Snow Heavy Snow
3:16 AM 19.4 °F 1.8 °F 14.0 °F 80% 29.78 in 0.2 mi West 25.3 mph 33.4 mph N/A Snow Snow
3:36 AM 19.4 °F 0.5 °F 12.2 °F 74% 29.77 in - West 29.9 mph 39.1 mph N/A   Overcast
3:56 AM 17.6 °F - 10.4 °F 73% 29.74 in - North - - N/A   Overcast
4:16 AM 17.6 °F -1.6 °F 10.4 °F 73% 29.81 in - West 28.8 mph 49.5 mph N/A   Overcast
4:36 AM 17.6 °F -2.8 °F 10.4 °F 73% 29.78 in - West 33.4 mph - N/A   Overcast
4:56 AM 17.6 °F -3.3 °F 10.4 °F 73% 29.79 in - West 35.7 mph 50.6 mph N/A   Overcast
5:16 AM 15.8 °F -5.2 °F 10.4 °F 79% 29.81 in - West 33.4 mph 51.8 mph N/A   Overcast
5:36 AM 15.8 °F -3.1 °F 10.4 °F 79% 29.84 in - West 25.3 mph 36.8 mph N/A   Overcast
5:56 AM 15.8 °F -1.9 °F 10.4 °F 79% 29.85 in - West 21.9 mph 40.3 mph N/A   Overcast
6:16 AM 15.8 °F -4.1 °F 8.6 °F 73% 29.85 in - West 28.8 mph 39.1 mph N/A   Overcast
6:36 AM 14.0 °F -7.1 °F 8.6 °F 79% 29.84 in - West 31.1 mph 40.3 mph N/A   Overcast
6:56 AM 14.0 °F -7.4 °F 8.6 °F 79% 29.85 in - West 32.2 mph 41.4 mph N/A   Overcast
7:16 AM 14.0 °F -7.4 °F 8.6 °F 79% 29.86 in - West 32.2 mph 42.6 mph N/A   Overcast
7:36 AM 14.0 °F -8.0 °F 8.6 °F 79% 29.85 in - West 34.5 mph 46.0 mph N/A   Overcast
7:56 AM 14.0 °F -7.4 °F 8.6 °F 79% 29.87 in - West 32.2 mph 40.3 mph N/A   Overcast
8:16 AM 14.0 °F -7.7 °F 8.6 °F 79% 29.88 in - West 33.4 mph 43.7 mph N/A   Overcast
8:36 AM 14.0 °F -5.1 °F 8.6 °F 79% 29.89 in - West 24.2 mph 36.8 mph N/A   Overcast
8:56 AM 14.0 °F -7.1 °F 8.6 °F 79% 29.89 in - West 31.1 mph 41.4 mph N/A   Overcast
9:16 AM 14.0 °F -6.5 °F 8.6 °F 79% 29.90 in - West 28.8 mph 39.1 mph N/A   Overcast
9:36 AM 14.0 °F -7.7 °F 8.6 °F 79% 29.90 in - West 33.4 mph 43.7 mph N/A   Overcast
9:56 AM 15.8 °F -3.7 °F 10.4 °F 79% 29.91 in - West 27.6 mph 34.5 mph N/A   Overcast
10:16 AM 15.8 °F -0.2 °F 10.4 °F 79% 29.93 in - West 17.3 mph 34.5 mph N/A   Overcast
10:36 AM 15.8 °F -3.7 °F 10.4 °F 79% 29.93 in - West 27.6 mph 39.1 mph N/A   Overcast
10:56 AM 17.6 °F 1.3 °F 10.4 °F 73% 29.93 in - West 19.6 mph 32.2 mph N/A   Overcast
11:16 AM 17.6 °F 0.1 °F 10.4 °F 73% 29.94 in - West 23.0 mph 33.4 mph N/A   Overcast
11:36 AM 19.4 °F - 14.0 °F 80% 29.95 in - North - - N/A   Overcast
11:56 AM 19.4 °F - 14.0 °F 80% 29.95 in - North - - N/A   Overcast
12:16 PM 19.4 °F 2.1 °F 12.2 °F 74% 29.96 in - West 24.2 mph 33.4 mph N/A   Overcast
12:36 PM 19.4 °F 2.1 °F 12.2 °F 74% 29.96 in - West 24.2 mph 32.2 mph N/A Snow Light Snow
12:56 PM 21.2 °F 5.2 °F 12.2 °F 68% 29.97 in 7.0 mi West 21.9 mph 29.9 mph N/A   Mostly Cloudy
1:16 PM 23.0 °F 6.6 °F 10.4 °F 59% 29.97 in 4.0 mi West 25.3 mph 33.4 mph N/A   Haze
1:36 PM 21.2 °F 6.4 °F 10.4 °F 63% 29.98 in 2.5 mi West 18.4 mph - N/A Snow Light Snow
1:56 PM 23.0 °F 8.3 °F 14.0 °F 68% 29.98 in 1.5 mi West 19.6 mph 23.0 mph N/A Snow Light Snow
2:16 PM 24.8 °F 12.9 °F 14.0 °F 64% 29.98 in 2.5 mi West 13.8 mph 18.4 mph N/A Snow Light Snow
2:36 PM 24.8 °F 12.4 °F 10.4 °F 54% 29.98 in 2.0 mi West 15.0 mph 24.2 mph N/A   Haze
2:56 PM 24.8 °F 14.6 °F 10.4 °F 54% 29.98 in 10.0 mi SW 10.4 mph 19.6 mph N/A   Mostly Cloudy
3:12 PM 26.6 °F 16.8 °F 10.4 °F 51% 29.98 in 10.0 mi SW 10.4 mph 19.6 mph N/A   Mostly Cloudy
3:36 PM 26.6 °F 16.8 °F 6.8 °F 43% 29.99 in 10.0 mi WSW 10.4 mph 21.9 mph N/A   Mostly Cloudy
3:56 PM 24.8 °F 10.3 °F 3.2 °F 40% 29.98 in 3.0 mi WSW 20.7 mph 26.5 mph N/A   Haze
4:16 PM 24.8 °F 10.3 °F 3.2 °F 40% 29.98 in 7.0 mi WSW 20.7 mph 25.3 mph N/A   Scattered Clouds
4:36 PM 24.8 °F 11.5 °F 3.2 °F 40% 30.00 in 2.0 mi West 17.3 mph 31.1 mph N/A   Haze
4:56 PM 24.8 °F 14.6 °F 5.0 °F 43% 30.00 in 5.0 mi WSW 10.4 mph 27.6 mph N/A   Haze
5:16 PM 24.8 °F 14.0 °F 6.8 °F 46% 30.00 in 10.0 mi WSW 11.5 mph 21.9 mph N/A   Scattered Clouds
5:36 PM 24.8 °F 14.6 °F 8.6 °F 50% 30.00 in 10.0 mi SSW 10.4 mph 18.4 mph N/A   Mostly Cloudy
5:56 PM 24.8 °F 16.1 °F 8.6 °F 50% 30.00 in 10.0 mi SW 8.1 mph - N/A   Overcast
6:16 PM 23.0 °F 12.4 °F 5.0 °F 46% 30.00 in 10.0 mi SW 10.4 mph 16.1 mph N/A   Mostly Cloudy
6:36 PM 23.0 °F 13.1 °F 6.8 °F 50% 30.01 in 10.0 mi South 9.2 mph - N/A   Mostly Cloudy
6:56 PM 23.0 °F 11.7 °F 5.0 °F 46% 30.00 in 10.0 mi South 11.5 mph 21.9 mph N/A   Mostly Cloudy
7:16 PM 23.0 °F 10.1 °F -0.4 °F 36% 30.00 in 10.0 mi South 15.0 mph 23.0 mph N/A   Overcast
7:36 PM 23.0 °F 11.1 °F 1.4 °F 39% 30.00 in 10.0 mi SSE 12.7 mph 20.7 mph N/A   Overcast
7:56 PM 23.0 °F 9.6 °F -4.0 °F 31% 30.00 in 10.0 mi SSE 16.1 mph 23.0 mph N/A   Overcast
8:16 PM 23.0 °F 11.1 °F -4.0 °F 31% 30.01 in 10.0 mi South 12.7 mph 23.0 mph N/A   Overcast
8:36 PM 23.0 °F 10.6 °F -0.4 °F 36% 30.02 in 10.0 mi South 13.8 mph 25.3 mph N/A   Overcast
8:56 PM 23.0 °F 9.6 °F -0.4 °F 36% 30.01 in 10.0 mi SSE 16.1 mph 21.9 mph N/A   Overcast
9:16 PM 23.0 °F 9.6 °F 1.4 °F 39% 30.01 in 10.0 mi SSE 16.1 mph 23.0 mph N/A   Overcast
9:36 PM 23.0 °F 8.0 °F 3.2 °F 43% 30.00 in 5.0 mi SSE 20.7 mph - N/A   Haze
9:56 PM 23.0 °F 10.6 °F 5.0 °F 46% 30.00 in 2.5 mi SSE 13.8 mph 24.2 mph N/A   Haze
10:16 PM 23.0 °F 8.3 °F 3.2 °F 43% 29.99 in 3.0 mi SSE 19.6 mph - N/A   Haze
10:36 PM 23.0 °F 9.2 °F 3.2 °F 43% 29.98 in 0.8 mi SSE 17.3 mph 33.4 mph N/A Snow Light Snow
10:56 PM 23.0 °F 7.2 °F 5.0 °F 46% 29.96 in 0.5 mi SE 23.0 mph 35.7 mph N/A Snow Light Snow
11:16 PM 23.0 °F 6.9 °F 6.8 °F 50% 29.96 in 1.0 mi SSE 24.2 mph 35.7 mph N/A Snow Light Snow
11:36 PM 23.0 °F 5.7 °F 8.6 °F 54% 29.95 in 0.2 mi SSE 28.8 mph 35.7 mph N/A Snow Snow
11:56 PM 23.0 °F 4.6 °F 10.4 °F 59% 29.92 in 0.2 mi SSE 33.4 mph 38.0 mph N/A Snow Snow